User: anonymous   Login
Location: Unspecified
(0.0000°N, 0.0000°E)
Time: 03:29:28
(UTC+00:00)
Language:

COSMOS 2452 - Orbit

View from above orbital plane
View from above orbital plane
View from above satellite
View from above satellite

Ground track
Ground track

The orbit data is extracted from the following two-line orbital elements,

1 35499U 09036B   18322.19616332  .00000024  00000-0  98553-4 0  9995
2 35499  82.4932   3.3737 0016988  60.5878 299.6896 12.42913364425026
Epoch (UTC): 18 November 2018 04:42:28
Eccentricity: 0.0016988
inclination: 82.4932°
perigee height: 1481 km
apogee height: 1507 km
right ascension of ascending node: 3.3737°
argument of perigee: 60.5878°
revolutions per day: 12.42913364
mean anomaly at epoch: 299.6896°
orbit number at epoch: 42502

The dashed part of the orbit path shows where the satellite is in the earth's shadow,  

DLR